Content
SEND FEEDBACK

Daily
Averages
Monthly
Summary
Canada

STRATFORD, ONTARIO


Home > North America > Canada > Ontario
Elevation: 1161 feet     Latitude: 43 24N     Longitude: 081 00W

WEATHER
 
SELECT A DAY
Number of Records: 191,696;   Date Range: 1/1/95 - 9/17/14
 
SHARE

PRINT THIS DATA

[ ← Previous Day ]
WEATHER ALMANAC - AUGUST 25, 2013
[ Next Day → ]
[ °C ]   °F
Weather ElementAverageHighLow
Temperature65.7 °F82.4 °F (3:00 pm)50 °F (6:29 am)
Dewpoint57.6 °F64.4 °F (10:00 am)50 °F (6:29 am)
Humidity77.7 %100 % (3:00 am)37 % (2:00 pm)
Barometer30.28 in30.34 in (7:00 am)30.16 in (9:00 pm)
Wind Speed7.4 mph17.3 mph (4:00 pm)
Wind Gust23 mph (4:00 pm)
Weather ElementAverage
Visibility12.2 mi
Wind DirectionSE (135.9 °)

Weather ElementTotal
Precipitation---
Cooling Degree Days1.2 (Base 65)
Growing Degree Days16.2 (Base 50)
Averaged from 32 records on August 25, 2013
WEATHER CONDITIONS BREAKOUT
WIND DIRECTION BREAKOUT
WEATHER BY HOUR - AUGUST 25, 2013
[ °C ]   °F
Local TimeTemperatureDewpointHumidityBarometerVisibilityWind DirectionWind SpeedGust SpeedPrecipitationEventsConditions
1:00 AM55.4 °F53.6 °F94 %30.32 in15.0 miEast (90°)3.5 mphPartly Cloudy
2:00 AM55.0 °F53.0 °F92 %30.32 in15.0 miENE (70°)3.5 mph
2:00 AM55.4 °F53.6 °F94 %30.32 in15.0 miEast (80°)3.5 mphMostly Cloudy
3:00 AM53.6 °F53.6 °F100 %30.32 in15.0 miNE (50°)4.6 mphClear
4:00 AM53.6 °F51.8 °F94 %30.32 in15.0 miENE (70°)2.3 mphClear
5:00 AM53.6 °F51.8 °F94 %30.33 in15.0 miENE (60°)3.5 mphScattered Clouds
6:00 AM53.6 °F53.6 °F100 %30.33 in15.0 miCalmFogShallow Fog
6:29 AM50.0 °F50.0 °F100 %30.33 in15.0 miCalmFogShallow Fog
7:00 AM50.0 °F50.0 °F100 %30.34 in8.0 miCalmFogShallow Fog
7:08 AM50.0 °F50.0 °F100 %30.34 in2.0 miCalmFogMostly Cloudy
7:20 AM51.8 °F50.0 °F94 %30.33 in4.0 miCalmFogMostly Cloudy
8:00 AM57.0 °F56.0 °F93 %30.34 in6.0 miENE (60°)1.2 mph
8:00 AM57.2 °F55.4 °F94 %30.34 in6.0 miEast (80°)2.3 mphFogMostly Cloudy
8:16 AM57.2 °F55.4 °F94 %30.34 in8.0 miEast (90°)2.3 mphMostly Cloudy
8:36 AM59.0 °F59.0 °F100 %30.33 in8.0 miEast (100°)3.5 mphMostly Cloudy
9:00 AM62.6 °F60.8 °F94 %30.33 in10.0 miESE (120°)2.3 mphScattered Clouds
10:00 AM69.8 °F64.4 °F83 %30.32 in15.0 miSW (220°)8.1 mphScattered Clouds
11:00 AM75.2 °F57.2 °F53 %30.33 in15.0 miSW (230°)10.4 mphMostly Cloudy
12:00 PM77.0 °F59.0 °F54 %30.30 in15.0 miWSW (250°)11.5 mphMostly Cloudy
1:00 PM78.8 °F59.0 °F51 %30.28 in15.0 miWSW (240°)11.5 mph19.6 mphOvercast
2:00 PM81.0 °F59.0 °F37 %30.27 in15.0 miSW (230°)12.7 mph
2:00 PM80.6 °F59.0 °F48 %30.27 in15.0 miSW (230°)15.0 mphScattered Clouds
3:00 PM82.4 °F59.0 °F45 %30.24 in15.0 miSW (230°)15.0 mphPartly Cloudy
4:00 PM80.6 °F64.4 °F58 %30.21 in15.0 miSSW (200°)17.3 mph23.0 mphScattered Clouds
5:00 PM78.8 °F64.4 °F61 %30.21 in15.0 miSSW (200°)15.0 mphMostly Cloudy
6:00 PM77.0 °F64.4 °F65 %30.19 in15.0 miSouth (190°)15.0 mph20.7 mphMostly Cloudy
7:00 PM77.0 °F64.4 °F65 %30.18 in15.0 miSouth (190°)12.7 mphMostly Cloudy
8:00 PM75.0 °F64.0 °F62 %30.17 in15.0 miSSW (210°)11.5 mph
8:00 PM75.2 °F64.4 °F69 %30.17 in15.0 miSSW (200°)11.5 mphMostly Cloudy
9:00 PM73.4 °F62.6 °F69 %30.16 in8.0 miSSW (210°)13.8 mphMostly Cloudy
10:00 PM73.4 °F60.8 °F65 %30.18 in8.0 miSW (220°)11.5 mphMostly Cloudy
11:00 PM73.4 °F60.8 °F65 %30.17 in8.0 miSW (230°)11.5 mphMostly Cloudy
Hourly data recorded from CYXU, located miles away from Stratford, Ontario







STORIES FROM OUR PARTNERS